Greenville, AL

9:00 AM CDT on September 26, 2017 (GMT -0500)
Greenville Municipal

Weather History for KPRN - November, 2014

Change the Weather History Date:

Saturday, November 1, 2014

  Actual Average Record
Temperature  
Mean Temperature 46 °F -  
Max Temperature 55 °F 76 °F 91 °F (2016)
Min Temperature 37 °F 53 °F 26 °F (1993)
Degree Days  
Heating Degree Days 19    
Moisture  
Dew Point 27 °F    
Average Humidity 50    
Maximum Humidity 73    
Minimum Humidity 33    
Precipitation  
Precipitation 0.00 in - - ()
Sea Level Pressure  
Sea Level Pressure 30.21 in    
Wind  
Wind Speed 13 mph (NNW)    
Max Wind Speed 22 mph    
Max Gust Speed 30 mph    
Visibility 10 miles    
Events      
Averages and records for this station are not official NWS values.
T = Trace of Precipitation, MM = Missing Value Source: NWS Daily Summary

Daily Weather History Graph

Daily Weather History Graph

Search for Another Location

Airport or City:

Trip Planner

Search our weather history database for the weather conditions in past years. The results will help you decide how hot, cold, wet, or windy it might be!

Date:

Astronomy

Nov. 01, 2014 Rise Set
Actual Time 7:02 AM CDT 5:56 PM CDT
Civil Twilight 6:37 AM CDT 6:21 PM CDT
Nautical Twilight 6:08 AM CDT 6:50 PM CDT
Astronomical Twilight 5:40 AM CDT 7:19 PM CDT
Moon 2:31 PM CDT (11/1) 1:19 AM CDT (11/1)
Length of Visible Light 11h 44m
Length of Day
10h 53m
Waxing Gibbous, 68% of the Moon is Illuminated
Nov 1
Waxing Gibbous
Nov 6
Full
Nov 14
Last Quarter
Nov 22
New
Nov 29
First Quarter

Hourly Weather History & Observations

Time (CDT) Temp. Windchill Dew Point Humidity Pressure Visibility Wind Dir Wind Speed Gust Speed Precip Events Conditions
12:56 AM 45.0 °F 36.6 °F 26.1 °F 48% 30.13 in 10.0 mi North 21.9 mph 29.9 mph N/A   Clear
1:56 AM 42.1 °F 36.1 °F 21.9 °F 45% 30.14 in 10.0 mi NNW 10.4 mph - N/A   Clear
2:56 AM 41.0 °F 35.2 °F 23.0 °F 49% 30.14 in 10.0 mi NNW 9.2 mph - N/A   Clear
3:56 AM 39.9 °F 33.9 °F 24.1 °F 53% 30.14 in 10.0 mi NW 9.2 mph - N/A   Clear
4:56 AM 39.0 °F 32.3 °F 25.0 °F 57% 30.14 in 10.0 mi NW 10.4 mph - N/A   Clear
6:56 AM 37.9 °F 32.1 °F 25.0 °F 60% 30.18 in 10.0 mi NW 8.1 mph 16.1 mph N/A   Clear
7:56 AM 39.0 °F 31.4 °F 25.0 °F 57% 30.19 in 10.0 mi NNW 12.7 mph - N/A   Clear
8:56 AM 41.0 °F 33.9 °F 26.1 °F 55% 30.21 in 10.0 mi NW 12.7 mph 25.3 mph N/A   Clear
9:56 AM 44.1 °F 36.2 °F 26.1 °F 49% 30.21 in 10.0 mi NNW 18.4 mph 25.3 mph N/A   Clear
10:56 AM 48.0 °F - 27.0 °F 44% 30.21 in 10.0 mi North 16.1 mph 23.0 mph N/A   Clear
11:56 AM 50.0 °F - 27.0 °F 41% 30.20 in 10.0 mi NNW 15.0 mph 23.0 mph N/A   Clear
12:56 PM 53.1 °F - 27.0 °F 37% 30.19 in 10.0 mi North 16.1 mph 21.9 mph N/A   Clear
1:56 PM 53.1 °F - 26.1 °F 35% 30.17 in 10.0 mi NNW 13.8 mph 27.6 mph N/A   Clear
2:56 PM 54.0 °F - 26.1 °F 34% 30.17 in 10.0 mi NNW 12.7 mph 21.9 mph N/A   Clear
3:56 PM 55.9 °F - 27.0 °F 33% 30.18 in 10.0 mi North 15.0 mph 21.9 mph N/A   Clear
4:56 PM 55.0 °F - 28.9 °F 37% 30.20 in 10.0 mi North 10.4 mph - N/A   Clear
5:56 PM 51.1 °F - 30.0 °F 44% 30.22 in 10.0 mi North 6.9 mph - N/A   Clear
6:56 PM 48.0 °F - 30.9 °F 52% 30.25 in 10.0 mi North 5.8 mph - N/A   Clear
7:56 PM 46.0 °F 42.5 °F 32.0 °F 58% 30.27 in 10.0 mi NNW 6.9 mph - N/A   Clear
8:56 PM 45.0 °F 41.8 °F 32.0 °F 60% 30.30 in 10.0 mi NNW 5.8 mph - N/A   Clear
9:56 PM 43.0 °F 41.3 °F 32.0 °F 65% 30.32 in 10.0 mi North 3.5 mph - N/A   Clear
10:56 PM 42.1 °F 39.2 °F 32.0 °F 67% 30.33 in 10.0 mi NNW 4.6 mph - N/A   Clear
11:56 PM 39.9 °F 37.8 °F 32.0 °F 73% 30.32 in 10.0 mi North 3.5 mph - N/A   Clear